Location: Newark
(36.2350°N, 59.6408°E)
Time: 21:06:04
(UTC+00:00)

ISS - Pass Details

Date: 19 November 2019
Orbit: 411 x 421 km, 51.6° (Epoch: 12 December)

Event Time Altitude Azimuth Distance (km) Brightness Sun altitude
Rises 15:05:17 0° 227° (SW) 2,342 0.8 -26.9°
Reaches altitude 10° 15:07:22 10° 227° (SW) 1,485 -0.4 -27.3°
Enters shadow 15:08:14 17° 227° (SW) 1,135 -1.0 -27.5°
